�������l�o���
Date,Time,MP-1(��Sv/h),MP-2(��Sv/h),MP-3(��Sv/h),MP-4(��Sv/h),MP-5(��Sv/h),MP-6(��Sv/h),MP-7(��Sv/h),MP-8(��Sv/h),����,����(m/s),���J
2016/11/14,00:00,1.101,1.884,1.265,2.111,1.473,0.577,1.056,0.975,�k��,4.7,��
2016/11/14,00:10,1.101,1.881,1.264,2.112,1.469,0.579,1.056,0.976,�k��,3.7,��
2016/11/14,00:20,1.100,1.883,1.265,2.109,1.469,0.578,1.055,0.974,�k��,3.9,��
2016/11/14,00:30,1.099,1.880,1.265,2.113,1.470,0.578,1.057,0.975,���k��,5.1,��
2016/11/14,00:40,1.099,1.884,1.266,2.111,1.469,0.576,1.054,0.973,��,5.0,��
2016/11/14,00:50,1.101,1.881,1.264,2.112,1.470,0.579,1.056,0.974,���k��,4.7,��
2016/11/14,01:00,1.098,1.883,1.265,2.109,1.468,0.580,1.055,0.974,���k��,4.4,��
2016/11/14,01:10,1.100,1.883,1.265,2.110,1.471,0.578,1.056,0.975,���k��,3.8,��
2016/11/14,01:20,1.099,1.883,1.265,2.113,1.470,0.579,1.055,0.975,���k��,3.5,��
2016/11/14,01:30,1.100,1.884,1.267,2.109,1.468,0.578,1.056,0.975,���k��,3.5,��
2016/11/14,01:40,1.099,1.882,1.264,2.108,1.467,0.578,1.057,0.972,�k��,3.2,��
2016/11/14,01:50,1.099,1.885,1.263,2.109,1.467,0.577,1.054,0.975,�k��,3.5,��
2016/11/14,02:00,1.102,1.879,1.263,2.111,1.466,0.578,1.054,0.974,�k��,3.8,��
2016/11/14,02:10,1.099,1.883,1.266,2.108,1.471,0.577,1.055,0.973,�k�k��,4.1,��
2016/11/14,02:20,1.099,1.883,1.265,2.109,1.467,0.579,1.055,0.974,�k��,3.6,��
2016/11/14,02:30,1.100,1.883,1.265,2.108,1.469,0.578,1.053,0.973,�k��,3.3,��
2016/11/14,02:40,1.097,1.882,1.263,2.108,1.467,0.581,1.053,0.974,�k��,3.3,��
2016/11/14,02:50,1.095,1.879,1.264,2.111,1.471,0.577,1.054,0.972,�k�k��,3.6,��
2016/11/14,03:00,1.098,1.880,1.264,2.109,1.468,0.577,1.053,0.975,�k�k��,3.9,��
2016/11/14,03:10,1.099,1.883,1.264,2.109,1.468,0.578,1.055,0.972,�k�k��,3.5,��
2016/11/14,03:20,1.098,1.880,1.263,2.106,1.467,0.578,1.054,0.972,�k�k��,3.5,��
2016/11/14,03:30,1.096,1.882,1.264,2.111,1.470,0.578,1.056,0.972,�k,4.1,��
2016/11/14,03:40,1.098,1.882,1.260,2.108,1.468,0.578,1.054,0.972,�k�k��,4.2,��
2016/11/14,03:50,1.096,1.880,1.262,2.108,1.467,0.578,1.056,0.974,�k,4.5,��
2016/11/14,04:00,1.097,1.884,1.261,2.108,1.468,0.576,1.053,0.974,�k�k��,4.6,��
2016/11/14,04:10,1.097,1.880,1.261,2.109,1.469,0.577,1.053,0.974,�k,4.0,��
2016/11/14,04:20,1.098,1.881,1.266,2.109,1.468,0.577,1.054,0.972,�k�k��,3.8,��
2016/11/14,04:30,1.098,1.880,1.264,2.109,1.471,0.578,1.055,0.975,�k,4.2,��
2016/11/14,04:40,1.097,1.881,1.262,2.110,1.468,0.578,1.055,0.972,�k�k��,4.1,��
2016/11/14,04:50,1.096,1.878,1.263,2.106,1.467,0.578,1.054,0.974,�k�k��,4.4,��
2016/11/14,05:00,1.098,1.879,1.263,2.106,1.469,0.578,1.054,0.974,�k�k��,4.8,��
2016/11/14,05:10,1.096,1.881,1.263,2.109,1.470,0.577,1.053,0.974,�k�k��,5.3,��
2016/11/14,05:20,1.096,1.881,1.260,2.111,1.470,0.577,1.055,0.973,�k�k��,5.7,��
2016/11/14,05:30,1.099,1.881,1.263,2.114,1.467,0.577,1.053,0.972,�k�k��,5.1,��
2016/11/14,05:40,1.098,1.884,1.263,2.110,1.465,0.577,1.055,0.973,�k�k��,4.9,��
2016/11/14,05:50,1.096,1.880,1.266,2.110,1.468,0.576,1.052,0.974,�k�k��,4.7,��
2016/11/14,06:00,1.096,1.880,1.264,2.110,1.468,0.576,1.052,0.973,�k�k��,4.7,��
2016/11/14,06:10,1.097,1.883,1.262,2.110,1.466,0.578,1.055,0.974,�k�k��,5.3,��
2016/11/14,06:20,1.097,1.881,1.262,2.112,1.467,0.577,1.054,0.974,�k�k��,6.0,��
2016/11/14,06:30,1.098,1.881,1.261,2.111,1.467,0.579,1.056,0.975,�k�k��,5.2,��
2016/11/14,06:40,1.096,1.880,1.262,2.111,1.468,0.576,1.054,0.975,�k�k��,5.8,��
2016/11/14,06:50,1.100,1.882,1.263,2.110,1.468,0.579,1.055,0.972,�k��,5.1,��
2016/11/14,07:00,1.099,1.881,1.263,2.109,1.469,0.577,1.054,0.974,�k��,4.3,��
2016/11/14,07:10,1.099,1.881,1.266,2.114,1.468,0.579,1.055,0.974,�k�k��,5.1,��
2016/11/14,07:20,1.098,1.882,1.263,2.109,1.471,0.578,1.054,0.974,�k�k��,4.9,��
2016/11/14,07:30,1.098,1.886,1.264,2.110,1.467,0.578,1.053,0.974,�k�k��,4.8,��
2016/11/14,07:40,1.098,1.884,1.266,2.113,1.469,0.578,1.056,0.975,�k��,4.5,��
2016/11/14,07:50,1.099,1.884,1.265,2.111,1.468,0.578,1.054,0.974,�k�k��,3.8,��
2016/11/14,08:00,1.097,1.883,1.265,2.111,1.467,0.578,1.055,0.975,�k��,3.7,��
2016/11/14,08:10,1.098,1.882,1.266,2.114,1.467,0.579,1.054,0.975,�k�k��,3.7,��
2016/11/14,08:20,1.099,1.879,1.266,2.112,1.467,0.578,1.052,0.973,�k�k��,3.5,��
2016/11/14,08:30,1.101,1.880,1.265,2.111,1.468,0.579,1.055,0.973,�k�k��,2.9,��
2016/11/14,08:40,1.100,1.884,1.264,2.116,1.469,0.578,1.056,0.976,�k�k��,3.3,��
2016/11/14,08:50,1.101,1.885,1.265,2.113,1.469,0.578,1.055,0.975,�k�k��,2.9,��
2016/11/14,09:00,1.104,1.884,1.266,2.114,1.470,0.577,1.053,0.975,�k�k��,2.6,��
2016/11/14,09:10,1.097,1.885,1.267,2.113,1.472,0.577,1.055,0.977,�k��,2.3,��
2016/11/14,09:20,1.104,1.888,1.267,2.114,1.465,0.578,1.055,0.975,�k�k��,2.0,��
2016/11/14,09:30,1.102,1.889,1.266,2.118,1.471,0.579,1.055,0.976,�k�k��,1.4,��
2016/11/14,09:40,1.107,1.886,1.265,2.114,1.472,0.579,1.054,0.978,�k,1.2,��
2016/11/14,09:50,1.101,1.885,1.268,2.113,1.469,0.581,1.055,0.976,�k�k��,1.5,��
2016/11/14,10:00,1.106,1.886,1.261,2.116,1.473,0.579,1.059,0.976,�k�k��,1.5,��
2016/11/14,10:10,1.105,1.886,1.258,2.114,1.472,0.579,1.058,0.976,���k��,0.9,��
2016/11/14,10:20,1.106,1.880,1.256,2.117,1.470,0.581,1.057,0.977,���쓌,1.2,��
2016/11/14,10:30,1.105,1.881,1.261,2.114,1.467,0.578,1.056,0.977,�k��,1.2,��
2016/11/14,10:40,1.115,1.881,1.263,2.117,1.469,0.579,1.059,0.978,���k��,1.2,��
2016/11/14,10:50,1.130,1.883,1.264,2.118,1.471,0.577,1.060,0.977,��,0.8,��
2016/11/14,11:00,1.129,1.870,1.264,2.117,1.472,0.576,1.058,0.975,��쓌,0.6,��
2016/11/14,11:10,1.131,1.882,1.266,2.116,1.471,0.576,1.057,0.974,���쓌,1.2,��
2016/11/14,11:20,1.129,1.885,1.264,2.116,1.472,0.576,1.057,0.975,-,CALM,��
2016/11/14,11:30,1.109,1.879,1.269,2.117,1.473,0.579,1.059,0.974,�k��,1.2,��
2016/11/14,11:40,1.105,1.884,1.269,2.118,1.471,0.579,1.058,0.975,���k��,0.6,��
2016/11/14,11:50,1.106,1.882,1.265,2.119,1.475,0.578,1.057,0.973,�k,1.2,��
2016/11/14,12:00,1.106,1.880,1.267,2.117,1.472,0.581,1.059,0.974,�k�k��,0.8,��
2016/11/14,12:10,1.103,1.883,1.267,2.118,1.471,0.580,1.058,0.976,�k��,1.4,��
2016/11/14,12:20,1.108,1.882,1.267,2.120,1.472,0.580,1.058,0.976,��,1.2,��
2016/11/14,12:30,1.108,1.883,1.267,2.117,1.473,0.581,1.057,0.975,��,1.2,��
2016/11/14,12:40,1.107,1.885,1.268,2.122,1.473,0.581,1.058,0.975,���쓌,0.9,��
2016/11/14,12:50,1.107,1.885,1.267,2.118,1.472,0.578,1.058,0.975,-,CALM,��
2016/11/14,13:00,1.106,1.884,1.267,2.117,1.469,0.579,1.058,0.975,��,0.8,��
2016/11/14,13:10,1.103,1.884,1.267,2.120,1.473,0.580,1.058,0.974,���k��,0.8,��
2016/11/14,13:20,1.104,1.883,1.265,2.115,1.471,0.579,1.059,0.972,�k��,0.9,��
2016/11/14,13:30,1.108,1.884,1.268,2.118,1.474,0.581,1.056,0.973,��,0.8,��
2016/11/14,13:40,1.109,1.886,1.269,2.118,1.472,0.579,1.058,0.973,���k��,1.2,��
2016/11/14,13:50,1.109,1.888,1.266,2.123,1.473,0.580,1.058,0.975,�k��,1.1,��
2016/11/14,14:00,1.111,1.889,1.268,2.118,1.476,0.582,1.054,0.975,�k��,1.4,��
2016/11/14,14:10,1.110,1.889,1.268,2.120,1.475,0.581,1.057,0.974,���k��,1.4,��
2016/11/14,14:20,1.111,1.889,1.269,2.121,1.474,0.579,1.057,0.973,�k��,1.9,��
2016/11/14,14:30,1.112,1.890,1.270,2.120,1.475,0.580,1.057,0.975,�k��,1.2,��
2016/11/14,14:40,1.111,1.886,1.267,2.122,1.472,0.581,1.058,0.976,�k��,0.9,��
2016/11/14,14:50,1.113,1.886,1.267,2.119,1.474,0.581,1.057,0.976,�k�k��,1.1,��
2016/11/14,15:00,1.112,1.887,1.272,2.119,1.475,0.580,1.058,0.979,�k��,1.2,��
2016/11/14,15:10,1.111,1.889,1.270,2.117,1.477,0.582,1.059,0.978,�k��,1.4,��
2016/11/14,15:20,1.108,1.884,1.268,2.120,1.478,0.581,1.059,0.977,�k��,0.9,��
2016/11/14,15:30,1.112,1.891,1.272,2.120,1.477,0.581,1.059,0.980,���k��,1.1,��
2016/11/14,15:40,1.112,1.886,1.268,2.118,1.475,0.582,1.060,0.978,���k��,1.2,��
2016/11/14,15:50,1.110,1.889,1.271,2.117,1.477,0.582,1.058,0.977,�k��,0.9,��
2016/11/14,16:00,1.113,1.889,1.271,2.119,1.478,0.581,1.057,0.977,�k��,0.9,��
2016/11/14,16:10,1.112,1.886,1.267,2.118,1.474,0.581,1.060,0.977,�k��,1.1,�L
2016/11/14,16:20,1.109,1.889,1.271,2.121,1.477,0.583,1.058,0.978,�k��,1.1,��
2016/11/14,16:30,1.110,1.892,1.268,2.121,1.478,0.582,1.060,0.975,�k��,0.9,��
2016/11/14,16:40,1.113,1.890,1.272,2.118,1.477,0.583,1.059,0.977,���쓌,0.8,��
2016/11/14,16:50,1.110,1.890,1.272,2.120,1.474,0.583,1.060,0.975,��쓌,0.8,��
2016/11/14,17:00,1.110,1.892,1.270,2.118,1.477,0.583,1.058,0.975,��,0.6,��
2016/11/14,17:10,1.110,1.893,1.272,2.119,1.476,0.582,1.059,0.977,��쓌,1.2,��
2016/11/14,17:20,1.110,1.888,1.268,2.120,1.479,0.582,1.058,0.977,��쓌,1.5,��
2016/11/14,17:30,1.110,1.889,1.267,2.118,1.477,0.581,1.058,0.976,��쓌,1.7,��
2016/11/14,17:40,1.108,1.893,1.269,2.120,1.477,0.581,1.061,0.974,��,1.9,��
2016/11/14,17:50,1.109,1.889,1.268,2.116,1.476,0.579,1.058,0.976,��,1.9,��
2016/11/14,18:00,1.109,1.890,1.270,2.116,1.478,0.580,1.058,0.976,��,1.7,��
2016/11/14,18:10,1.111,1.890,1.271,2.115,1.478,0.581,1.059,0.976,��쓌,1.9,��
2016/11/14,18:20,1.109,1.890,1.268,2.118,1.475,0.581,1.058,0.977,��쓌,2.0,��
2016/11/14,18:30,1.108,1.887,1.270,2.118,1.474,0.581,1.059,0.976,��,1.7,��
2016/11/14,18:40,1.109,1.887,1.270,2.116,1.473,0.582,1.055,0.975,��,2.2,��
2016/11/14,18:50,1.110,1.886,1.269,2.116,1.477,0.583,1.060,0.976,��쓌,2.2,��
2016/11/14,19:00,1.111,1.891,1.270,2.116,1.475,0.582,1.059,0.977,�쓌,1.7,��
2016/11/14,19:10,1.110,1.888,1.269,2.116,1.477,0.579,1.059,0.976,�쓌,1.7,��
2016/11/14,19:20,1.111,1.887,1.269,2.118,1.474,0.580,1.057,0.976,��쓌,3.1,��
2016/11/14,19:30,1.111,1.888,1.268,2.116,1.476,0.581,1.057,0.977,��쓌,2.2,��
2016/11/14,19:40,1.111,1.890,1.270,2.116,1.477,0.581,1.058,0.976,��쓌,3.3,��
2016/11/14,19:50,1.111,1.888,1.269,2.119,1.475,0.582,1.060,0.975,��쓌,2.6,��
2016/11/14,20:00,1.112,1.887,1.270,2.118,1.477,0.584,1.058,0.976,��쓌,2.3,��
2016/11/14,20:10,1.113,1.887,1.271,2.118,1.475,0.583,1.057,0.976,��,2.9,��
2016/11/14,20:20,1.111,1.893,1.269,2.119,1.475,0.578,1.060,0.978,��쐼,2.3,��
2016/11/14,20:30,1.110,1.887,1.271,2.117,1.479,0.582,1.057,0.976,��,3.6,��
2016/11/14,20:40,1.109,1.890,1.269,2.119,1.478,0.582,1.062,0.978,��,3.8,��
2016/11/14,20:50,1.112,1.891,1.272,2.117,1.475,0.581,1.056,0.976,��,3.7,��
2016/11/14,21:00,1.113,1.890,1.270,2.117,1.474,0.579,1.057,0.975,��,3.4,��
2016/11/14,21:10,1.111,1.889,1.270,2.117,1.478,0.582,1.056,0.977,��쐼,2.5,��
2016/11/14,21:20,1.112,1.889,1.270,2.118,1.477,0.584,1.056,0.976,��,3.1,��
2016/11/14,21:30,1.113,1.887,1.268,2.118,1.476,0.582,1.059,0.977,��,2.5,��
2016/11/14,21:40,1.113,1.889,1.271,2.118,1.476,0.581,1.058,0.976,��,3.4,��
2016/11/14,21:50,1.110,1.889,1.267,2.118,1.475,0.581,1.060,0.976,��쓌,5.0,��
2016/11/14,22:00,1.112,1.887,1.270,2.121,1.475,0.581,1.059,0.977,��,6.9,��
2016/11/14,22:10,1.113,1.888,1.268,2.120,1.477,0.581,1.059,0.976,��,6.4,��
2016/11/14,22:20,1.111,1.886,1.270,2.119,1.478,0.583,1.060,0.977,��,5.9,��
2016/11/14,22:30,1.115,1.890,1.269,2.119,1.476,0.581,1.057,0.976,��,6.0,��
2016/11/14,22:40,1.111,1.888,1.271,2.116,1.476,0.583,1.059,0.978,��,6.9,��
2016/11/14,22:50,1.113,1.891,1.272,2.116,1.476,0.582,1.058,0.976,��,7.6,��
2016/11/14,23:00,1.111,1.891,1.271,2.120,1.477,0.583,1.061,0.978,��,8.0,��
2016/11/14,23:10,1.112,1.892,1.273,2.122,1.476,0.583,1.059,0.977,��,8.5,��
2016/11/14,23:20,1.115,1.891,1.271,2.119,1.476,0.583,1.060,0.978,��,9.5,��
2016/11/14,23:30,1.113,1.891,1.269,2.117,1.478,0.583,1.061,0.978,��,9.6,��
2016/11/14,23:40,1.113,1.892,1.272,2.119,1.478,0.582,1.060,0.977,��,10.4,��
2016/11/14,23:50,1.115,1.888,1.271,2.122,1.478,0.583,1.059,0.977,��,9.4,��
